When you browse on this site, cookies collect data to enhance your experience and personalize the content and advertising you see.
Visit our Privacy Policy to learn more. By continuing to use the site, you agree to this use of cookies and data.
  • în România
  • Lista ţărilor
  • Pe 7 zile
  • Temperatura apei
  • Hartă satelitară
  • Meteo pe hartă
  • Widget-uri
  • user-avatar
    Intrare

    Meteo pe oră la Zarka

    Astăzi, 21 Ianuarie, Luni

    Timp Temperatura Precipitaţii Vânt Presiune Umiditate
    00:00 +9°C° 0 mm 3 m/s 706 mmHg 50%
    01:00 +8°C° 0 mm 3 m/s 705 mmHg 52%
    02:00 +8°C° 0 mm 3 m/s 705 mmHg 53%
    03:00 +7°C° 0 mm 3 m/s 705 mmHg 55%
    04:00 +7°C° 0 mm 3 m/s 705 mmHg 57%
    05:00 +6°C° 0 mm 2 m/s 705 mmHg 58%
    06:00 +7°C° 0 mm 2 m/s 705 mmHg 58%
    07:00 +7°C° 0 mm 2 m/s 705 mmHg 57%
    08:00 +7°C° 0 mm 2 m/s 705 mmHg 56%
    09:00 +9°C° 0 mm 2 m/s 706 mmHg 51%
    10:00 +10°C° 0 mm 2 m/s 706 mmHg 46%
    11:00 +13°C° 0 mm 2 m/s 706 mmHg 41%
    12:00 +14°C° 0 mm 1 m/s 706 mmHg 38%
    13:00 +15°C° 0 mm 1 m/s 705 mmHg 35%
    14:00 +16°C° 0 mm 1 m/s 705 mmHg 32%
    15:00 +15°C° 0 mm 1 m/s 705 mmHg 37%
    16:00 +13°C° 0 mm 0 m/s 705 mmHg 41%
    17:00 +12°C° 0 mm 0 m/s 705 mmHg 46%
    18:00 +11°C° 0 mm 0 m/s 705 mmHg 46%
    19:00 +11°C° 0 mm 0 m/s 705 mmHg 47%
    20:00 +10°C° 0 mm 0 m/s 705 mmHg 48%
    21:00 +10°C° 0 mm 0 m/s 705 mmHg 48%
    22:00 +10°C° 0 mm 0 m/s 705 mmHg 48%
    23:00 +9°C° 0 mm 0 m/s 704 mmHg 49%

    Mâine, 22 Ianuarie, Marţi

    Timp Temperatura Precipitaţii Vânt Presiune Umiditate
    00:00 +9°C° 0 mm 0 m/s 704 mmHg 49%
    01:00 +10°C° 0 mm 1 m/s 704 mmHg 49%
    02:00 +10°C° 0 mm 1 m/s 704 mmHg 49%
    03:00 +9°C° 0 mm 1 m/s 704 mmHg 49%
    04:00 +9°C° 0 mm 1 m/s 704 mmHg 49%
    05:00 +9°C° 0 mm 1 m/s 704 mmHg 49%
    06:00 +10°C° 0 mm 1 m/s 704 mmHg 48%
    07:00 +10°C° 0 mm 1 m/s 704 mmHg 46%
    08:00 +11°C° 0 mm 1 m/s 705 mmHg 45%
    09:00 +13°C° 0 mm 1 m/s 705 mmHg 40%
    10:00 +14°C° 0 mm 1 m/s 705 mmHg 35%
    11:00 +16°C° 0 mm 1 m/s 705 mmHg 31%
    12:00 +16°C° 0 mm 1 m/s 705 mmHg 30%
    13:00 +17°C° 0 mm 2 m/s 705 mmHg 29%
    14:00 +17°C° 0 mm 2 m/s 704 mmHg 28%
    15:00 +16°C° 0 mm 2 m/s 704 mmHg 32%
    16:00 +15°C° 0 mm 2 m/s 704 mmHg 35%
    17:00 +15°C° 0 mm 2 m/s 704 mmHg 39%
    18:00 +14°C° 0 mm 2 m/s 704 mmHg 43%
    19:00 +13°C° 0 mm 2 m/s 705 mmHg 46%
    20:00 +12°C° 0 mm 2 m/s 705 mmHg 50%
    21:00 +11°C° 0 mm 1 m/s 705 mmHg 53%
    22:00 +11°C° 0 mm 1 m/s 705 mmHg 56%
    23:00 +10°C° 0 mm 1 m/s 705 mmHg 59%

    Poimâine, 23 Ianuarie, Miercuri

    Timp Temperatura Precipitaţii Vânt Presiune Umiditate
    00:00 +10°C° 0 mm 1 m/s 705 mmHg 61%
    01:00 +9°C° 0 mm 1 m/s 704 mmHg 63%
    02:00 +9°C° 0 mm 1 m/s 704 mmHg 66%
    03:00 +8°C° 0 mm 0 m/s 704 mmHg 66%
    04:00 +7°C° 0 mm 0 m/s 704 mmHg 66%
    05:00 +7°C° 0 mm 0 m/s 704 mmHg 66%
    06:00 +8°C° 0 mm 0 m/s 704 mmHg 62%
    07:00 +10°C° 0 mm 1 m/s 705 mmHg 58%
    08:00 +11°C° 0 mm 1 m/s 705 mmHg 54%
    09:00 +12°C° 0 mm 1 m/s 705 mmHg 47%
    10:00 +14°C° 0 mm 2 m/s 705 mmHg 40%
    11:00 +14°C° 0 mm 3 m/s 706 mmHg 33%
    12:00 +16°C° 0 mm 3 m/s 705 mmHg 31%
    13:00 +17°C° 0 mm 3 m/s 704 mmHg 30%
    14:00 +17°C° 0 mm 3 m/s 704 mmHg 29%
    15:00 +16°C° 0 mm 3 m/s 704 mmHg 31%
    16:00 +16°C° 0 mm 3 m/s 703 mmHg 34%
    17:00 +14°C° 0 mm 3 m/s 703 mmHg 37%
    18:00 +13°C° 0 mm 3 m/s 703 mmHg 38%
    19:00 +12°C° 0 mm 4 m/s 703 mmHg 40%
    20:00 +12°C° 0 mm 4 m/s 703 mmHg 41%
    21:00 +12°C° 0 mm 4 m/s 703 mmHg 41%
    22:00 +11°C° 0 mm 4 m/s 703 mmHg 41%
    23:00 +11°C° 0 mm 4 m/s 703 mmHg 41%

    24 Ianuarie, Joi

    Timp Temperatura Precipitaţii Vânt Presiune Umiditate
    00:00 +11°C° 0 mm 4 m/s 703 mmHg 41%
    01:00 +11°C° 0 mm 4 m/s 702 mmHg 42%
    02:00 +10°C° 0 mm 4 m/s 702 mmHg 42%
    03:00 +10°C° 0 mm 4 m/s 702 mmHg 43%
    04:00 +8°C° 0 mm 5 m/s 702 mmHg 45%
    05:00 +8°C° 0 mm 5 m/s 702 mmHg 46%
    06:00 +8°C° 0 mm 5 m/s 702 mmHg 46%
    07:00 +8°C° 0 mm 5 m/s 702 mmHg 46%
    08:00 +8°C° 0 mm 5 m/s 702 mmHg 46%
    09:00 +11°C° 0 mm 4 m/s 703 mmHg 41%
    10:00 +13°C° 0 mm 4 m/s 703 mmHg 35%
    11:00 +15°C° 0 mm 4 m/s 703 mmHg 30%
    12:00 +17°C° 0 mm 4 m/s 702 mmHg 27%
    13:00 +18°C° 0 mm 4 m/s 702 mmHg 25%
    14:00 +19°C° 0 mm 4 m/s 702 mmHg 22%
    15:00 +18°C° 0 mm 3 m/s 702 mmHg 25%
    16:00 +17°C° 0 mm 3 m/s 701 mmHg 28%
    17:00 +16°C° 0 mm 3 m/s 701 mmHg 30%
    18:00 +15°C° 0 mm 2 m/s 702 mmHg 32%
    19:00 +15°C° 0 mm 2 m/s 702 mmHg 33%
    20:00 +14°C° 0 mm 2 m/s 702 mmHg 34%
    21:00 +13°C° 0 mm 1 m/s 702 mmHg 34%
    22:00 +13°C° 0 mm 1 m/s 703 mmHg 34%
    23:00 +12°C° 0 mm 1 m/s 703 mmHg 34%

    25 Ianuarie, Vineri

    Timp Temperatura Precipitaţii Vânt Presiune Umiditate
    00:00 +12°C° 0 mm 1 m/s 703 mmHg 38%
    01:00 +10°C° 0 mm 2 m/s 703 mmHg 42%
    02:00 +10°C° 0 mm 2 m/s 703 mmHg 46%
    03:00 +9°C° 0 mm 2 m/s 703 mmHg 52%
    04:00 +10°C° 0 mm 1 m/s 703 mmHg 58%
    05:00 +9°C° 0 mm 1 m/s 703 mmHg 64%
    06:00 +10°C° 0 mm 1 m/s 704 mmHg 64%
    07:00 +11°C° 0 mm 1 m/s 704 mmHg 64%
    08:00 +10°C° 0 mm 0 m/s 705 mmHg 63%
    09:00 +12°C° 0 mm 0 m/s 705 mmHg 58%
    10:00 +13°C° 0 mm 0 m/s 705 mmHg 52%
    11:00 +15°C° 0 mm 0 m/s 705 mmHg 46%
    12:00 +16°C° 0 mm 1 m/s 705 mmHg 43%
    13:00 +18°C° 0 mm 1 m/s 705 mmHg 40%
    14:00 +19°C° 0 mm 1 m/s 704 mmHg 37%
    15:00 +18°C° 0 mm 1 m/s 704 mmHg 41%
    16:00 +16°C° 0 mm 1 m/s 704 mmHg 46%
    17:00 +14°C° 0 mm 0 m/s 704 mmHg 50%
    18:00 +14°C° 0 mm 0 m/s 704 mmHg 51%
    19:00 +14°C° 0 mm 1 m/s 704 mmHg 53%
    20:00 +13°C° 0 mm 1 m/s 704 mmHg 54%
    21:00 +13°C° 0 mm 1 m/s 704 mmHg 54%
    22:00 +13°C° 0 mm 1 m/s 703 mmHg 54%
    23:00 +12°C° 0 mm 1 m/s 703 mmHg 54%

    26 Ianuarie, Sâmbătă

    Timp Temperatura Precipitaţii Vânt Presiune Umiditate
    00:00 +12°C° 0 mm 1 m/s 703 mmHg 55%
    01:00 +11°C° 0 mm 1 m/s 703 mmHg 56%
    02:00 +11°C° 0 mm 1 m/s 702 mmHg 58%
    03:00 +11°C° 0 mm 1 m/s 702 mmHg 60%
    04:00 +10°C° 0 mm 1 m/s 702 mmHg 62%
    05:00 +10°C° 0 mm 1 m/s 702 mmHg 64%
    06:00 +10°C° 0 mm 1 m/s 702 mmHg 62%
    07:00 +11°C° 0 mm 1 m/s 703 mmHg 60%
    08:00 +12°C° 0 mm 1 m/s 703 mmHg 58%
    09:00 +13°C° 0 mm 1 m/s 703 mmHg 50%
    10:00 +15°C° 0 mm 1 m/s 703 mmHg 43%
    11:00 +18°C° 0 mm 1 m/s 704 mmHg 36%
    12:00 +18°C° 0 mm 1 m/s 703 mmHg 33%
    13:00 +19°C° 0 mm 1 m/s 703 mmHg 30%
    14:00 +19°C° 0 mm 2 m/s 703 mmHg 27%
    15:00 +19°C° 0 mm 1 m/s 702 mmHg 31%
    16:00 +18°C° 0 mm 1 m/s 702 mmHg 35%
    17:00 +16°C° 0 mm 1 m/s 702 mmHg 39%
    18:00 +15°C° 0 mm 1 m/s 702 mmHg 41%
    19:00 +14°C° 0 mm 1 m/s 702 mmHg 42%
    20:00 +14°C° 0 mm 1 m/s 702 mmHg 44%
    21:00 +13°C° 0 mm 1 m/s 702 mmHg 44%
    22:00 +13°C° 0 mm 1 m/s 702 mmHg 43%
    23:00 +13°C° 0 mm 1 m/s 701 mmHg 43%
    Arată mai mult